Weather History for San Antonio Stinson, TX

Change the Weather History Date:

Tuesday, November 22, 2011

  Actual Average Record
Temperature  
Mean Temperature 70 °F -  
Max Temperature 82 °F 67 °F 84 °F (2010)
Min Temperature 57 °F 47 °F 36 °F (2005)
Cooling Degree Days 4    
Growing Degree Days 20 (Base 50)    
Moisture  
Dew Point 54 °F    
Average Humidity 59    
Maximum Humidity 91    
Minimum Humidity 25    
Precipitation  
Precipitation 0.00 in - - ()
Sea Level Pressure  
Sea Level Pressure 30.01 in    
Wind  
Wind Speed 7 mph (North)    
Max Wind Speed 14 mph    
Max Gust Speed 21 mph    
Visibility 10 miles    
Events      
Averages and records for this station are not official NWS values.
T = Trace of Precipitation, MM = Missing Value Source: NWS Daily Summary

Daily Weather History Graph

Daily Weather History Graph

Search for Another Location

Airport:

Trip Planner

Search our weather history database for the weather conditions in past years. The results will help you decide how hot, cold, wet, or windy it might be!

Date:

Astronomy

Nov. 22, 2011 Rise Set
Actual Time 7:03 AM CST 5:36 PM CST
Civil Twilight 6:37 AM CST 6:01 PM CST
Nautical Twilight 6:08 AM CST 6:30 PM CST
Astronomical Twilight 5:40 AM CST 6:59 PM CST
Moon 4:04 AM CST (11/22) 3:29 PM CST (11/22)
Length of Visible Light 11h 24m
Length of Day
10h 33m
Waning Crescent, 9% of the Moon is Illuminated
Nov 22
Waning Crescent
Nov 25
New
Dec 2
First Quarter
Dec 10
Full
Dec 17
Last Quarter

Hourly Weather History & Observations

Time (CST) Temp. Dew Point Humidity Pressure Visibility Wind Dir Wind Speed Gust Speed Precip Events Conditions
12:22 AM 75.2 °F 69.8 °F 83% 29.91 in 10.0 mi SE 6.9 mph - N/A   Overcast
1:53 AM 75.0 °F 70.0 °F 84% 29.88 in 10.0 mi Calm Calm - N/A   Overcast
2:53 AM 75.0 °F 70.0 °F 84% 29.88 in 10.0 mi Calm Calm - N/A   Overcast
3:53 AM 73.9 °F 71.1 °F 91% 29.89 in 10.0 mi SE 3.5 mph - N/A   Overcast
4:53 AM 73.9 °F 70.0 °F 87% 29.91 in 10.0 mi NNW 13.8 mph 20.7 mph N/A   Overcast
5:02 AM 71.6 °F 60.8 °F 69% 29.94 in 10.0 mi NNW 9.2 mph 20.7 mph N/A   Overcast
6:12 AM 66.2 °F 59.0 °F 78% 29.96 in 10.0 mi North 8.1 mph - 0.00 in   Overcast
6:53 AM 66.9 °F 57.9 °F 73% 29.96 in 10.0 mi NNW 5.8 mph - 0.00 in   Overcast
7:53 AM 68.0 °F 55.0 °F 63% 29.98 in 10.0 mi North 9.2 mph - N/A   Mostly Cloudy
8:53 AM 70.0 °F 54.0 °F 57% 30.01 in 10.0 mi North 9.2 mph - N/A   Mostly Cloudy
10:53 AM 75.0 °F 48.9 °F 40% 30.03 in 10.0 mi NNW 10.4 mph - N/A   Clear
11:53 AM 77.0 °F 46.9 °F 34% 30.01 in 10.0 mi NNW 6.9 mph - N/A   Partly Cloudy
1:53 PM 80.1 °F 45.0 °F 29% 29.97 in 10.0 mi NW 5.8 mph - N/A   Clear
2:53 PM 82.0 °F 44.1 °F 26% 29.97 in 10.0 mi North 10.4 mph - N/A   Clear
3:53 PM 81.0 °F 42.1 °F 25% 29.98 in 10.0 mi NNW 5.8 mph - N/A   Clear
4:53 PM 79.0 °F 44.1 °F 29% 30.00 in 10.0 mi NNE 6.9 mph - N/A   Clear
5:53 PM 73.9 °F 44.1 °F 34% 30.04 in 10.0 mi NNE 4.6 mph - N/A   Clear
6:53 PM 70.0 °F 48.9 °F 47% 30.09 in 10.0 mi NE 10.4 mph 19.6 mph N/A   Clear
7:53 PM 64.9 °F 50.0 °F 58% 30.14 in 10.0 mi NE 13.8 mph 20.7 mph N/A   Clear
8:53 PM 62.1 °F 48.9 °F 62% 30.17 in 10.0 mi NE 9.2 mph - N/A   Clear
9:53 PM 60.1 °F 48.9 °F 67% 30.19 in 10.0 mi NNE 9.2 mph - N/A   Clear
10:53 PM 57.9 °F 48.9 °F 72% 30.21 in 10.0 mi North 9.2 mph - N/A   Clear
11:53 PM 57.0 °F 48.9 °F 74% 30.21 in 10.0 mi North 4.6 mph - N/A   Clear